This demonstration page uses our WeatherBlox Daily Observations layout. Learn more.

38.88101, -77.10428

Hourly Observations for March 30, 2015

Temp ( °F °C ) Dew Point ( °F °C ) Humidity (%) Winds ( mph kmh ) Pressure ( in mb ) Visibility ( mi km ) Precip ( " mm )
12:52 am 00:52 Cloudy 44 6.7 20 -6.7 38 38 S 14 22 30.1 1019 10 16.0934 0 0
1:36 am 01:36 Cloudy 43 6 21 -6 42 42 SW 18 30 30.12 1020 5 8.0467 0 0
1:50 am 01:50 Cloudy with Light Rain 43 6 28 -2 57 57 S 18 30 30.09 1019 6 9.65604 0 0
1:52 am 01:52 Cloudy with Light Rain 42 5.6 29 -1.7 60 60 S 20 31 30.07 1018 6 9.65604 0.01 0.254
1:59 am 01:59 Cloudy 43 6 28 -2 57 57 S 17 28 30.06 1018 10 16.0934 0 0
2:52 am 02:52 Cloudy 45 7.2 25 -3.9 46 46 S 14 22 30.03 1017 10 16.0934 0 0.0254
3:52 am 03:52 Cloudy 44 6.7 21 -6.1 40 40 SSW 9 15 30.04 1017 10 16.0934 0 0.0254
4:12 am 04:12 Cloudy 45 7 19 -7 37 37 S 16 26 30.03 1017 10 16.0934 0 0
4:45 am 04:45 Cloudy with Light Snow 43 6 27 -3 53 53 SSW 9 15 30 1016 6 9.65604 0.01 0.254
4:52 am 04:52 Cloudy with Light Rain/Snow 43 6.1 27 -2.8 53 53 S 14 22 29.99 1016 8 12.87472 0.01 0.254
5:52 am 05:52 Cloudy 44 6.7 26 -3.3 49 49 S 14 22 29.96 1015 10 16.0934 0 0.0254
6:52 am 06:52 Cloudy 45 7.2 23 -5 42 42 SSW 13 20 29.93 1014 10 16.0934 0 0
7:52 am 07:52 Cloudy 46 7.8 24 -4.4 42 42 S 12 19 29.93 1013 10 16.0934 0 0
8:52 am 08:52 Cloudy 48 8.9 23 -5 37 37 SW 10 17 29.93 1013 10 16.0934 0 0
9:52 am 09:52 Cloudy 50 10 23 -5 35 35 SW 10 17 29.92 1013 10 16.0934 0 0
10:52 am 10:52 Cloudy 53 11.7 26 -3.3 35 35 SW 10 17 29.92 1013 10 16.0934 0 0
11:52 am 11:52 Cloudy 55 12.8 28 -2.2 35 35 W 8 13 29.92 1013 10 16.0934 0 0
12:52 pm 12:52 Mostly Cloudy 58 14.4 30 -1.1 35 35 VRB 6 9 29.91 1013 10 16.0934 0 0
1:52 pm 13:52 Mostly Cloudy 62 16.7 32 0 32 32 WNW 13 20 29.89 1012 10 16.0934 0 0
2:52 pm 14:52 Partly Cloudy 64 17.8 28 -2.2 26 26 NNW 16 26 29.86 1011 10 16.0934 0 0
3:52 pm 15:52 Partly Cloudy 65 18.3 26 -3.3 23 23 NW 13 20 29.85 1011 10 16.0934 0 0
4:52 pm 16:52 Partly Cloudy 63 17.2 25 -3.9 24 24 W 13 20 29.85 1011 10 16.0934 0 0
5:52 pm 17:52 Partly Cloudy 65 18.3 23 -5 20 20 NW 12 19 29.86 1011 10 16.0934 0 0
6:52 pm 18:52 Mostly Sunny 62 16.7 23 -5 22 22 WNW 17 28 29.88 1012 10 16.0934 0 0
7:52 pm 19:52 Mostly Clear 60 15.6 21 -6.1 22 22 NW 10 17 29.91 1013 10 16.0934 0 0
8:52 pm 20:52 Mostly Clear 58 14.4 22 -5.6 25 25 NNW 14 22 29.95 1014 10 16.0934 0 0
9:52 pm 21:52 Mostly Clear 55 12.8 21 -6.1 26 26 NW 5 7 29.96 1015 10 16.0934 0 0
10:52 pm 22:52 Mostly Cloudy 54 12.2 21 -6.1 28 28 WSW 3 6 29.97 1015 10 16.0934 0 0
11:52 pm 23:52 Mostly Cloudy 52 11.1 24 -4.4 34 34 S 6 9 29.96 1015 10 16.0934 0 0

Powered by AerisWeather